Other Public Products
Issued by NWS Grand Forks, ND

Home | Current Version | Previous Version | Text Only | Print | Product List | Glossary On
Versions: 1 2 3 4 5 6 7 8 9 10 11 12 13 14 15 16 17 18 19 20 21 22 23 24 25 26 27 28 29 30 31 32 33 34 35 36 37 38 39 40 41 42 43 44 45 46 47 48 49 50
951
FPUS83 KFGF 241331
OPUFGF
PRAIRIE TO PINES WEATHER ROUNDUP
NATIONAL WEATHER SERVICE EASTERN NORTH DAKOTA/GRAND FORKS ND
700 AM CST FRI NOV 24 2017

 **SATELLITE DATA USED TO AUGMENT SKY COVER AT AUTOMATED STATIONS**
 *****  WEATHER ACROSS EASTERN NORTH DAKOTA  *****

CITY           SKY/WX    TMP DP  RH WIND       PRES   REMARKS
GRAND FORKS    LGT RAIN  38  36  92 W8        29.29R
GRND FORKS AFB LGT RAIN  39  37  93 NW9       29.31R
GRND FORKS NWS   N/A     37 N/A N/A NW10        N/A
BUXTON           N/A     42  38  86 W6          N/A
DEVILS LAKE    LGT RAIN  38  36  92 W9        29.34R
FARGO          CLOUDY    46  37  71 CALM      29.30R
WAHPETON ARPT  NOT AVBL
$$

 *****  WEATHER ACROSS CENTRAL AND WESTERN NORTH DAKOTA  *****

CITY           SKY/WX    TMP DP  RH WIND       PRES   REMARKS
JAMESTOWN      LGT RAIN  48  41  76 W13       29.36R
BISMARCK       CLOUDY    53  46  77 W14       29.39F
MINOT          LGT RAIN  42  38  85 W18G25    29.40R
MINOT AFB      MOCLDY    41  38  87 NW17      29.39R
GARRISON         N/A     40  38  93 NW20G31   29.42R
WILLISTON      CLOUDY    42  36  79 NW15      29.53R
DICKINSON      FAIR      47  42  83 W29G35    29.46R
HETTINGER      MOCLDY    45  42  89 W13       29.55R
$$

 *****  OTHER OBSERVATIONS NORTHEAST NORTH DAKOTA  *****

CITY           SKY/WX    TMP DP  RH WIND       PRES   REMARKS
WALHALLA       FAIR      41  41 100 W13       29.27F
LANGDON        CLOUDY    37  37 100 W9        29.31R
CAVALIER       CLOUDY    37  36  93 W7        29.27S
GRAFTON        FAIR      37  37 100 W7        29.30R
CANDO          CLOUDY    37  37 100 W14       29.37R
FORT TOTTEN      N/A     39  37  93 NW3       29.95
ROLLA          CLOUDY    41  34  75 W9G17     29.35R
RUGBY          CLOUDY    37  37 100 W13       29.38R
 ***** THE ABOVE OBSERVATIONS ARE NON NWS ARE NOT QUALITY
        CONTROLLED AND MAY MIS-REPORT RAIN FOR SNOW...
$$

 *****  OTHER OBSERVATIONS SOUTHEAST NORTH DAKOTA *****

CITY           SKY/WX    TMP DP  RH WIND       PRES   REMARKS
COOPERSTOWN    FAIR      43  41  93 W12       29.33F
VALLEY CITY    DRIZZLE   46  45  93 W13G18    29.37R
OAKES            N/A     48  37  66 W9        29.38R
GWINNER          N/A     50  37  62 W15       29.37R
SHEYENNE NWR     N/A     50  38  64 NW7       29.95S
BUFFALO          N/A     50  38  63 W17         N/A
WYNDMERE       NOT AVBL
 ***** THE ABOVE OBSERVATIONS ARE NON NWS ARE NOT QUALITY
       CONTROLLED AND MAY MIS-REPORT RAIN FOR SNOW...
$$

  *****  WEATHER ACROSS NORTHERN MINNESOTA  *****

CITY           SKY/WX    TMP DP  RH WIND       PRES   REMARKS
FLAG ISLAND    CLOUDY    37  34  87 NW6       29.20F
WARROAD        MOCLDY    39  36  87 W6        29.23S
ROSEAU         CLOUDY    39  34  81 W6        29.25S
HALLOCK        CLOUDY    36  34  93 CALM      29.27R
THF RVR FALLS  LGT RAIN  39  35  86 NW8       29.28S
HALSTAD          N/A     45  37  75 W10         N/A
FOSSTON        DRIZZLE   37  36  93 S8        29.26F
BAUDETTE       MOCLDY    39  35  86 NW9       29.22R
WASKISH        CLOUDY    39  36  87 SW6       29.25S
CROOKSTON      MIX PCPN  37  36  93 W7        29.31R
$$
  *****  WEATHER ACROSS CENTRAL AND WEST MINNESOTA  *****

CITY           SKY/WX    TMP DP  RH WIND       PRES   REMARKS
BEMIDJI        MOCLDY    40  37  89 W5        29.24F
PARK RAPIDS    FAIR      36  33  89 NW7       29.28S
WADENA         FAIR      43  37  81 W10       29.30R
DETROIT LAKES  LGT RAIN  45  37  76 W3        29.29F
MOORHEAD       LGT RAIN  39  34  81 CALM      29.33R
FERGUS FALLS   FAIR      41  36  81 CALM      29.35R
ELBOW LAKE     PTSUNNY   37  34  90 W5        29.33R
MORRIS MN      FAIR      43  36  75 W9        29.32F
STAPLES          N/A     39  34  81 S5        29.26F
WHEATON        FAIR      46  36  66 W7        29.35R
$$
  *****  WEATHER ELSEWHERE ACROSS MINNESOTA  *****

CITY           SKY/WX    TMP DP  RH WIND       PRES   REMARKS
DULUTH         MOCLDY    38  34  85 W16       29.26F
INTRNTL FALLS  MOCLDY    42  35  76 W10       29.21R
ELY            FAIR      37  34  87 SW5       29.21R
CLOQUET        MOCLDY    39  32  75 SW9       29.28F
BRAINERD       MOCLDY    39  34  82 SW7       29.29F
HIBBING        LGT RAIN  39  34  82 VRB5      29.24F
ALEXANDRIA     FAIR      41  36  82 SW10      29.32F
SAINT CLOUD    FAIR      40  36  86 SW10      29.33S
MINNEAPOLIS    FAIR      48  39  71 S10       29.37F
$$

  *****  WEATHER ACROSS SOUTH DAKOTA  *****

CITY           SKY/WX    TMP DP  RH WIND       PRES   REMARKS
SIOUX FALLS    FAIR      43  39  86 CALM      29.43R
BROOKINGS      FAIR      34  33  96 SE9       29.40F
WATERTOWN      FAIR      34  33  96 CALM      29.39R
HURON          MOCLDY    37  34  89 SE5       29.40R
SISSETON         N/A     51  37  58 W10       29.32S
ABERDEEN       FAIR      40  35  83 CALM      29.40R
MITCHELL       FAIR      41  36  82 SW7       29.41F
PIERRE         FAIR      47  37  68 W8        29.43S
MOBRIDGE       FAIR      49  36  61 N6        29.45R
RAPID CITY     FAIR      56  34  43 N37G48    29.61R
$$

  *****  SOME WEATHER IN NEARBY STATES *****

CITY           SKY/WX    TMP DP  RH WIND       PRES   REMARKS
GLASGOW MT     CLOUDY    40  36  86 W12       29.62R
GREAT FALLS MT FAIR      34  20  56 SW17      29.79R WCI  23
CHEYENNE WY    FAIR      53  27  36 W23G32    29.81F
SCOTTSBLUFF NE FAIR      50  33  52 W8        29.71S
OMAHA NE       FAIR      44  37  76 SE10      29.54F
DES MOINES IA  FAIR      51  36  56 S17       29.55F
DAVENPORT IA   FAIR      43  33  68 S16       29.70F
CHICAGO IL     FAIR      38  28  67 S7        29.75F
EAU CLAIRE WI  FAIR      43  35  73 S7        29.41F
LA CROSSE WI   FAIR      45  34  65 S9        29.51F
$$

  *****  SOME NATIONAL WEATHER *****

CITY           SKY/WX    TMP DP  RH WIND       PRES   REMARKS
LA GUARDIA NY  FAIR      41  23  48 CALM      30.06R
RALEIGH NC     FAIR      29  28  96 CALM      30.10R
ATLANTA GA     FAIR      43  38  82 NE5       30.04R
NEW ORLEANS LA FAIR      39  38  96 CALM      30.04S
OKLAHOMA CITY  MOCLDY    42  33  70 S8        29.85S
ALBUQUERQUE NM FAIR      39  26  59 CALM      30.11S
SALT LAKE CITY FAIR      46  43  89 CALM      29.96S
LOS ANGELES CA FAIR      62  49  62 E3        29.90S
BOISE ID       LGT RAIN  49  46  90 NW14      29.99R
SEATTLE WA     MOCLDY    47  42  83 S15       30.06R
$$

*** WEATHER ACROSS MANITOBA...SASKATCHEWAN AND ONTARIO ***
                ***ONTARIO***

CITY           SKY/WX    TMP DP  RH WIND       PRES   REMARKS
GERALDTON      CLOUDY    30  30 100 S8        29.11F WCI  23
THUNDER BAY    MOCLDY    28  28 100 CALM      29.17S
SIOUX LOOKOUT  CLOUDY    34  32  93 W10G22    29.13R FOG
TORONTO        PTCLDY    36  27  69 S5        29.85S
BIG TROUT LK   FLURRIES  10   7  85 SE6       29.12F WCI   1
PICKLE LAKE    SNOW      21  19  93 NW5       29.07R VSB 1/2 WCI  15
DRYDEN         CLOUDY    34  32  93 W9G17     29.16S FOG
KENORA         DRIZZLE   34  32  93 NW8       29.20R
$$
                *** MANITOBA***

CITY           SKY/WX    TMP DP  RH WIND       PRES   REMARKS
BRANDON        CLOUDY    36  32  87 W16       29.30R
DAUPHIN        CLEAR     36  30  80 W16G22    29.26R
ISLAND LAKE    FLURRIES  12   9  85 W9        29.13R WCI   0
PILOT MOUND      N/A     37  34  87 W8          N/A
THE PAS        FLURRIES  19  12  73 N20G32    29.25R WCI   4
THOMPSON       LGT SNOW   3  -2  78 N8        29.24R WCI -10
WINNIPEG       MOCLDY    32  30  93 SW5       29.26S
LYNN LAKE      FLURRIES  -2  -4  92 N5        29.34R WCI -12
CHURCHILL      FLURRIES  -6  -8  92 W8        29.39R WCI -21
GILLAM         LGT SNOW   1  -4  78 NE12      29.26  WCI -15
$$
                ***SASKATCHEWAN***

CITY           SKY/WX    TMP DP  RH WIND       PRES   REMARKS
ESTEVAN        LGT RAIN  37  34  87 W15       29.46R
KINDERSLEY     PTCLDY    32  27  80 W16G23    29.56R WCI  21
LLOYDMINSTER   PTCLDY    30  27  86 W14       29.48R WCI  20
PRINCE ALBERT  PTCLDY    30  27  86 W7        29.38R WCI  23
REGINA         CLEAR     36  34  93 W16       29.46R
YORKTON        CLEAR     32  28  86 W15       29.33R WC



USA.gov is the U.S. government's official web portal to all federal, state and local government web resources and services.